Date String (YYYY-MM-DD hh:mm:ss) UTC,Instrument flags,Ambient pressure (hPa),Sample flow (lpm),Bypass flow (lpm),Sample temperature (°C),Ambient temperature (°C),ASC tube jacket temperature (°C),LED temperature (°C),Box temperature (°C),Sample RH (%),Span deviation,Mass concentration (μg/m³),Mass concentration (μg/m³),Mass concentration (μg/m³)
DateTimeUTC,F1_M11,P_M11,Q1_M11,Q2_M11,T1_M11,T2_M11,T3_M11,T4_M11,T5_M11,U1_M11,ZSPAN_M11,X2_M11,X0_M11,X1_M11
2021-09-08 21:00:00,,0831.7,5.00,0.00,28.9,26.6,00.0,38.0,30.6,18.9,0001.9,0033.10,0049.90,0030.60
2021-09-08 21:01:00,,0831.8,5.01,0.00,28.9,27.0,00.0,38.0,30.7,19.1,0002.2,0033.21,0050.98,0030.65
2021-09-08 21:02:00,,0831.7,5.01,0.00,29.0,27.5,00.0,38.0,30.8,18.9,0002.3,0033.30,0051.76,0030.72
2021-09-08 21:03:00,,0831.7,5.00,0.00,29.0,27.8,00.0,38.0,30.9,18.6,0002.3,0033.29,0051.45,0030.76
2021-09-08 21:04:00,,0831.6,4.99,0.00,29.1,27.8,00.0,38.0,31.0,18.3,0002.3,0033.36,0051.76,0030.80
2021-09-08 21:05:00,,0831.7,5.00,0.00,29.0,26.5,00.0,38.0,30.6,18.9,0002.3,0033.33,0053.13,0030.81
2021-09-08 21:06:00,,0831.7,5.01,0.00,28.9,25.4,00.0,38.0,30.3,19.0,0002.5,0033.41,0054.42,0030.82
2021-09-08 21:07:00,,0831.7,5.00,0.00,28.8,25.8,00.0,38.0,30.4,18.7,0002.6,0033.40,0054.87,0030.79
2021-09-08 21:08:00,,0831.6,4.99,0.00,28.8,26.3,00.0,38.0,30.5,18.5,0002.5,0033.43,0054.76,0030.77
2021-09-08 21:09:00,,0831.7,4.99,0.00,28.8,26.7,00.0,37.9,30.6,18.8,0002.2,0033.36,0054.03,0030.71
2021-09-08 21:10:00,,0831.7,5.00,0.00,28.9,27.2,00.0,37.9,30.7,19.1,0002.1,0033.37,0054.58,0030.65
2021-09-08 21:11:00,,0831.7,5.01,0.00,28.9,27.5,00.0,37.9,30.8,19.0,0002.5,0033.30,0054.82,0030.57
2021-09-08 21:12:00,,0831.7,5.00,0.00,29.0,27.8,00.0,38.0,30.9,19.0,0002.2,0033.30,0053.78,0030.52
2021-09-08 21:13:00,,0831.7,5.00,0.00,29.1,28.1,00.0,38.0,31.0,19.0,0002.0,0033.23,0053.96,0030.48
2021-09-08 21:14:00,,0831.7,5.00,0.00,29.1,28.4,00.0,38.0,31.1,19.0,0002.0,0033.22,0055.40,0030.47
2021-09-08 21:15:00,,0831.6,5.02,0.00,29.2,27.9,00.0,38.0,31.0,19.0,0002.1,0033.14,0055.22,0030.45
2021-09-08 21:16:00,,0831.6,5.00,0.00,29.1,26.1,00.0,38.0,30.5,19.1,0002.2,0033.13,0054.47,0030.43
2021-09-08 21:17:00,,0831.5,5.00,0.00,28.9,25.7,00.0,38.0,30.3,19.0,0002.2,0033.10,0054.75,0030.41
2021-09-08 21:18:00,,0831.5,5.00,0.00,28.9,26.1,00.0,38.0,30.5,19.4,0002.1,0033.13,0055.27,0030.40
2021-09-08 21:19:00,,0831.6,4.99,0.00,28.9,26.5,00.0,38.0,30.6,19.4,0002.2,0033.17,0054.72,0030.39
2021-09-08 21:20:00,,0831.6,5.01,0.00,28.9,27.0,00.0,38.0,30.7,19.3,0002.2,0033.16,0054.29,0030.39
2021-09-08 21:21:00,,0831.6,4.99,0.00,29.0,27.4,00.0,38.0,30.8,18.6,0001.9,0033.02,0054.25,0030.36
2021-09-08 21:22:00,,0831.6,5.01,0.00,29.0,27.7,00.0,38.0,30.9,18.8,0001.8,0032.94,0054.00,0030.32
2021-09-08 21:23:00,,0831.6,5.00,0.00,29.1,28.0,00.0,38.0,31.0,17.5,0001.8,0032.81,0054.13,0030.22
2021-09-08 21:24:00,,0831.6,5.01,0.00,29.2,28.3,00.0,38.0,31.1,18.0,0002.1,0032.76,0053.44,0030.16
2021-09-08 21:25:00,,0831.6,5.00,0.00,29.2,27.2,00.0,38.0,30.8,18.3,0002.0,0032.75,0052.18,0030.10
2021-09-08 21:26:00,,0831.5,5.01,0.00,29.0,25.8,00.0,38.0,30.4,18.9,0001.8,0032.75,0052.53,0030.04
2021-09-08 21:27:00,,0831.5,5.00,0.00,28.9,25.9,00.0,38.0,30.4,19.1,0001.7,0032.67,0052.30,0029.99
2021-09-08 21:28:00,,0831.5,5.01,0.00,28.9,26.3,00.0,38.0,30.5,19.0,0001.8,0032.61,0050.72,0029.94
2021-09-08 21:29:00,,0831.6,5.00,0.00,28.9,26.7,00.0,38.0,30.6,18.9,0002.2,0032.51,0049.91,0029.88
2021-09-08 21:30:00,,0831.5,5.00,0.00,28.9,27.2,00.0,38.0,30.7,18.8,0002.3,0032.42,0050.70,0029.85
2021-09-08 21:31:00,,0831.5,5.00,0.00,29.0,27.5,00.0,38.0,30.9,18.8,0002.6,0032.37,0051.73,0029.83
2021-09-08 21:32:00,,0831.5,5.00,0.00,29.1,27.8,00.0,38.0,31.0,19.5,0002.9,0032.45,0051.98,0029.84
2021-09-08 21:33:00,,0831.5,5.01,0.00,29.1,28.1,00.0,38.0,31.1,19.0,0002.8,0032.52,0052.11,0029.87
2021-09-08 21:34:00,,0831.5,5.01,0.00,29.2,28.3,00.0,38.1,31.2,18.8,0002.9,0032.55,0053.58,0029.89
2021-09-08 21:35:00,,0831.5,5.00,0.00,29.2,27.5,00.0,38.1,30.9,18.9,0002.8,0032.52,0054.74,0029.86
2021-09-08 21:36:00,,0831.5,5.01,0.00,29.1,25.9,00.0,38.1,30.5,19.0,0002.9,0032.46,0055.09,0029.84
2021-09-08 21:37:00,,0831.5,5.01,0.00,29.0,25.9,00.0,38.1,30.4,19.3,0002.9,0032.41,0055.61,0029.83
2021-09-08 21:38:00,,0831.4,4.99,0.00,29.0,26.3,00.0,38.1,30.6,19.2,0002.8,0032.41,0055.98,0029.79
2021-09-08 21:39:00,,0831.4,5.00,0.00,29.0,26.8,00.0,38.0,30.7,19.3,0002.6,0032.29,0055.68,0029.74
2021-09-08 21:40:00,,0831.5,5.01,0.00,29.0,27.2,00.0,38.0,30.8,19.0,0002.4,0032.28,0055.88,0029.72
2021-09-08 21:41:00,,0831.5,4.99,0.00,29.0,27.6,00.0,38.0,30.9,19.1,0002.6,0032.25,0055.18,0029.72
2021-09-08 21:42:00,,0831.4,5.00,0.00,29.1,27.9,00.0,38.0,31.0,19.0,0002.6,0032.22,0055.13,0029.65
2021-09-08 21:43:00,,0831.4,5.01,0.00,29.2,28.2,00.0,38.1,31.1,18.3,0002.4,0032.08,0054.65,0029.59
2021-09-08 21:44:00,,0831.4,5.00,0.00,29.2,28.2,00.0,38.1,31.2,18.4,0002.4,0032.00,0055.45,0029.50
2021-09-08 21:45:00,,0831.4,4.99,0.00,29.2,26.7,00.0,38.1,30.7,18.5,0002.4,0032.00,0054.43,0029.47
2021-09-08 21:46:00,,0831.3,5.01,0.00,29.0,25.6,00.0,38.1,30.4,19.4,0002.4,0032.02,0053.38,0029.50
2021-09-08 21:47:00,,0831.3,5.00,0.00,29.0,26.0,00.0,38.1,30.4,20.0,0002.6,0032.03,0052.67,0029.51
2021-09-08 21:48:00,,0831.3,5.01,0.00,28.9,26.4,00.0,38.0,30.6,19.5,0002.7,0032.16,0052.21,0029.53
2021-09-08 21:49:00,,0831.3,4.98,0.00,28.9,26.9,00.0,38.0,30.7,19.4,0003.0,0032.27,0051.97,0029.56
2021-09-08 21:50:00,,0831.3,5.00,0.00,29.0,27.3,00.0,38.0,30.8,19.4,0003.1,0032.37,0052.24,0029.56
2021-09-08 21:51:00,,0831.3,4.99,0.00,29.0,27.7,00.0,38.0,30.9,19.5,0003.1,0032.40,0052.50,0029.58
2021-09-08 21:52:00,,0831.3,5.00,0.00,29.1,28.0,00.0,38.1,31.0,19.5,0002.9,0032.44,0053.73,0029.56
2021-09-08 21:53:00,,0831.3,5.00,0.00,29.2,28.1,00.0,38.1,31.1,19.5,0002.7,0032.40,0052.42,0029.57
2021-09-08 21:54:00,,0831.2,5.01,0.00,29.1,26.8,00.0,38.1,30.7,19.3,0002.8,0032.42,0051.57,0029.55
2021-09-08 21:55:00,,0831.2,4.99,0.00,29.0,25.6,00.0,38.1,30.3,19.4,0002.7,0032.40,0050.83,0029.57
2021-09-08 21:56:00,,0831.2,4.99,0.00,28.9,25.9,00.0,38.0,30.4,19.5,0002.5,0032.35,0049.78,0029.59
2021-09-08 21:57:00,,0831.2,5.01,0.00,28.9,26.3,00.0,38.0,30.5,19.5,0002.6,0032.28,0049.83,0029.57
2021-09-08 21:58:00,,0831.2,4.99,0.00,28.9,26.8,00.0,38.0,30.6,19.8,0002.4,0032.22,0050.36,0029.49
2021-09-08 21:59:00,,0831.3,5.01,0.00,28.9,27.2,00.0,38.0,30.7,19.6,0002.2,0032.16,0049.69,0029.44
